Location: Unspecified
(54.1780°N, 0.0000°E)
Time: 12:36:58
(UTC+00:00)

Tiros 1 - Pass Details

Date: 27 June 2019
Orbit: 630 x 664 km, 48.4° (Epoch: 20 July)

Event Time Altitude Azimuth Distance (km) Brightness Sun altitude
Rises 20:54:36 0° 203° (SSW) 2,961 10.3 -2.6°
Reaches altitude 10° 20:57:45 10° 182° (S) 2,046 9.3 -2.9°
Maximum altitude 21:00:33 16° 145° (SE) 1,690 8.7 -3.2°
Drops below altitude 10° 21:03:21 10° 109° (ESE) 2,038 9.2 -3.4°
Sets 21:06:28 0° 87° (E) 2,943 10.2 -3.7°
